Bat Cave, NC

11:33 AM EDT on August 28, 2016 (GMT -0400)
Asheville Regional

Weather History for KAVL - December, 2007

Change the Weather History Date:

Saturday, December 15, 2007

  Actual Average Record
Temperature  
Mean Temperature 41 °F 39 °F  
Max Temperature 46 °F 49 °F 72 °F (1948)
Min Temperature 35 °F 29 °F 4 °F (1914)
Degree Days  
Heating Degree Days 24 26  
Month to date heating degree days 262 362  
Since 1 July heating degree days 1070 1229  
Cooling Degree Days 0 0  
Month to date cooling degree days 0 0  
Year to date cooling degree days 984 863  
Moisture  
Dew Point 37 °F    
Average Humidity 88    
Maximum Humidity 100    
Minimum Humidity 76    
Precipitation  
Precipitation 0.67 in 0.11 in 2.45 in (1901)
Month to date precipitation 0.79 1.91  
Year to date precipitation 31.12 43.89  
Snow  
Snow 0.00 in 0.00 in 2.00 in (1871)
Month to date snowfall T 0.2  
Since 1 July snowfall T 0.3  
Snow Depth -    
Sea Level Pressure  
Sea Level Pressure 30.00 in    
Wind  
Wind Speed 4 mph (South)    
Max Wind Speed 15 mph    
Max Gust Speed 17 mph    
Visibility 7 miles    
Events Rain    
T = Trace of Precipitation, MM = Missing Value Source: NWS Daily Summary

Daily Weather History Graph

Daily Weather History Graph

Search for Another Location

Airport or City:

Trip Planner

Search our weather history database for the weather conditions in past years. The results will help you decide how hot, cold, wet, or windy it might be!

Date:

Astronomy

Dec. 15, 2007 Rise Set
Actual Time 7:31 AM EST 5:18 PM EST
Civil Twilight 7:03 AM EST 5:47 PM EST
Nautical Twilight 6:31 AM EST 6:18 PM EST
Astronomical Twilight 6:00 AM EST 6:49 PM EST
Moon 11:40 AM EST (12/15) 11:07 PM EST (12/15)
Length of Visible Light 10h 43m
Length of Day
9h 46m
Waxing Crescent, 32% of the Moon is Illuminated
Dec 15
Waxing Crescent
Dec 17
First Quarter
Dec 23
Full
Dec 31
Last Quarter
Jan 8
New

Hourly Weather History & Observations

Time (EST) Temp. Windchill Dew Point Humidity Pressure Visibility Wind Dir Wind Speed Gust Speed Precip Events Conditions
12:54 AM 37.9 °F - 36.0 °F 93% 30.19 in 10.0 mi Calm Calm - N/A   Clear
1:54 AM 37.0 °F - 36.0 °F 96% 30.19 in 9.0 mi Calm Calm - N/A   Clear
2:54 AM 36.0 °F - 35.1 °F 97% 30.18 in 9.0 mi Calm Calm - N/A   Clear
3:54 AM 37.0 °F - 35.1 °F 93% 30.19 in 10.0 mi Calm Calm - N/A   Clear
4:54 AM 36.0 °F - 35.1 °F 97% 30.17 in 10.0 mi Calm Calm - N/A   Clear
5:54 AM 36.0 °F - 35.1 °F 97% 30.17 in 10.0 mi Calm Calm - N/A   Clear
6:54 AM 37.0 °F - 35.1 °F 93% 30.17 in 10.0 mi Calm Calm - N/A   Clear
7:54 AM 37.0 °F - 36.0 °F 96% 30.17 in 10.0 mi Calm Calm - N/A   Partly Cloudy
8:06 AM 39.2 °F - 35.6 °F 87% 30.17 in 10.0 mi Calm Calm - N/A   Mostly Cloudy
8:54 AM 41.0 °F - 37.0 °F 86% 30.17 in 10.0 mi Calm Calm - N/A   Overcast
9:54 AM 45.0 °F 41.2 °F 37.9 °F 76% 30.19 in 10.0 mi South 6.9 mph - N/A   Overcast
10:54 AM 45.0 °F 40.1 °F 39.0 °F 80% 30.16 in 10.0 mi SSE 9.2 mph - N/A   Overcast
11:21 AM 44.6 °F 38.8 °F 39.2 °F 81% 30.15 in 10.0 mi SSE 11.5 mph - N/A   Overcast
11:54 AM 44.1 °F 38.1 °F 39.0 °F 82% 30.14 in 10.0 mi SSE 11.5 mph - N/A   Overcast
12:31 PM 42.8 °F 37.5 °F 41.0 °F 93% 30.11 in 7.0 mi South 9.2 mph - N/A   Overcast
12:54 PM 43.0 °F 37.2 °F 41.0 °F 93% 30.09 in 5.0 mi South 10.4 mph - 0.00 in   Overcast
1:54 PM 42.1 °F 35.7 °F 41.0 °F 96% 30.05 in 4.0 mi South 11.5 mph - 0.00 in Rain Light Rain
2:54 PM 41.0 °F 34.7 °F 39.9 °F 96% 30.01 in 8.0 mi SSE 10.4 mph - 0.01 in Rain Light Rain
3:18 PM 41.0 °F 35.8 °F 39.2 °F 93% 30.00 in 2.0 mi SSE 8.1 mph - 0.00 in   Overcast
3:54 PM 39.9 °F 34.5 °F 39.9 °F 100% 29.99 in 2.0 mi South 8.1 mph - 0.01 in Rain Light Rain
4:54 PM 39.0 °F 35.7 °F 37.9 °F 96% 29.98 in 2.0 mi Variable 4.6 mph - 0.04 in Rain Heavy Rain
5:01 PM 39.2 °F 34.2 °F 39.2 °F 100% 29.95 in 1.8 mi South 6.9 mph - 0.03 in Rain Rain
5:05 PM 39.2 °F 35.9 °F 39.2 °F 100% 29.94 in 3.0 mi South 4.6 mph - 0.03 in Rain Light Rain
5:54 PM 37.9 °F 35.5 °F 37.9 °F 100% 29.93 in 2.0 mi SE 3.5 mph - 0.09 in Rain Light Rain
6:09 PM 37.4 °F 32.8 °F 37.4 °F 100% 29.90 in 2.0 mi SSE 5.8 mph - 0.03 in Rain Light Rain
6:29 PM 37.4 °F 32.1 °F 37.4 °F 100% 29.90 in 2.0 mi SSE 6.9 mph - 0.03 in Rain Light Rain
6:54 PM 37.9 °F 33.5 °F 37.0 °F 97% 29.93 in 2.0 mi SSW 5.8 mph - 0.05 in Rain Light Rain
7:01 PM 37.4 °F 34.9 °F 37.4 °F 100% 29.92 in 9.0 mi Variable 3.5 mph - 0.01 in Rain Light Rain
7:27 PM 37.4 °F 32.8 °F 35.6 °F 93% 29.91 in 3.0 mi ESE 5.8 mph - 0.07 in Rain Heavy Rain
7:54 PM 37.0 °F 31.0 °F 36.0 °F 96% 29.94 in 4.0 mi South 8.1 mph - 0.15 in Rain Rain
8:54 PM 37.0 °F 33.3 °F 36.0 °F 96% 29.89 in 3.0 mi South 4.6 mph - 0.12 in Rain Rain
9:12 PM 37.4 °F - 35.6 °F 93% 29.87 in 7.0 mi Calm Calm - 0.01 in Rain Light Rain
9:44 PM 37.4 °F - 35.6 °F 93% 29.84 in 6.0 mi Calm Calm - 0.08 in Rain Rain
9:54 PM 37.0 °F - 36.0 °F 96% 29.84 in 6.0 mi Calm Calm - 0.10 in Rain Rain
10:12 PM 37.4 °F 33.8 °F 35.6 °F 93% 29.82 in 5.0 mi ESE 4.6 mph - 0.04 in Rain Rain
10:43 PM 35.6 °F 29.9 °F 35.6 °F 100% 29.75 in 10.0 mi Variable 6.9 mph - 0.10 in Rain Light Rain
10:54 PM 36.0 °F 31.1 °F 36.0 °F 100% 29.74 in 10.0 mi West 5.8 mph - 0.10 in Rain Light Rain
11:00 PM 35.6 °F 29.9 °F 35.6 °F 100% 29.73 in 10.0 mi WSW 6.9 mph - 0.00 in   Overcast
11:54 PM 37.0 °F 33.3 °F 36.0 °F 96% 29.73 in 10.0 mi SE 4.6 mph - 0.00 in Rain Light Rain